Regional Weather Roundup
Issued by NWS Cleveland, OH

Home | Current Version | Previous Version | Graphics & Text | Print | Product List | Glossary On
Versions: 1 2 3 4 5 6 7 8 9 10 11 12 13 14 15 16 17 18 19 20 21 22 23 24 25 26 27 28 29 30 31 32 33 34 35 36 37 38 39 40 41 42 43 44 45 46 47 48 49 50
000
ASUS41 KCLE 281610
RWRCLE
OHIO REGIONAL WEATHER ROUNDUP
NATIONAL WEATHER SERVICE CLEVELAND, OH
1100 AM EST WED JAN 28 2015

NOTE: "FAIR" INDICATES FEW OR NO CLOUDS BELOW 12,000 FEET WITH NO
SIGNIFICANT WEATHER AND/OR OBSTRUCTIONS TO VISIBILITY.

OHZ001>008-015>018-024>027-034-035-043-044-281700-
   NORTHWEST OHIO

CITY           SKY/WX    TMP DP  RH WIND       PRES   REMARKS
DEFIANCE       SUNNY     18  12  77 S5        30.37S WCI  11
FINDLAY        SUNNY     14  11  87 S3        30.37R FOG
TOLEDO EXPRESS SUNNY     22  13  68 S6        30.37R WCI  14
TOLEDO EXEC    SUNNY     20  13  74 S3        30.39R
LIMA           SUNNY     15  10  80 S6        30.36R HAZE    WCI   6
$$

OHZ009>014-019>023-028>033-038-089-281700-
   NORTHEAST OHIO

CITY           SKY/WX    TMP DP  RH WIND       PRES   REMARKS
CLE-HOPKINS    MOSUNNY   16  14  92 SE3       30.39S
CLE-LAKEFRONT  SUNNY     19  15  84 CALM      30.37S
CUY CO. ARPT   MOSUNNY   21  16  79 NW7       30.37R WCI  13
LORAIN-ELYRIA  SUNNY     14  14 100 SW3       30.36F
ASHTABULA      SUNNY     16  10  77 NW7       30.35R WCI   6
AKRON-CANTON   MOSUNNY   16  12  84 CALM      30.33F
WOOSTER        SUNNY      7   6  96 CALM      30.35S FOG
MANSFIELD      SUNNY     18  15  88 CALM      30.34R
YOUNGSTOWN     MOSUNNY   14   8  77 NW7       30.33R WCI   4
$$

OHZ042-051>053-060>062-070>072-077>081-281700-
  SOUTHWEST OHIO

CITY           SKY/WX    TMP DP  RH WIND       PRES   REMARKS
CINC-COVINGTON MOSUNNY   26  15  63 S5        30.37S WCI  20
CINC-LUNKEN    SUNNY     25  19  78 N6        30.42F HAZE    WCI  18
HAMILTON       SUNNY     24  18  77 CALM      30.41S HAZE
DAYTON         MOSUNNY   20  16  84 SE3       30.37R FOG
WRIGHT-PAT AFB MOSUNNY   15  12  87 VRB1      30.38S FOG
DAYTON GENERAL SUNNY     21  16  81 S5        30.36S WCI  15
WILMINGTON     SUNNY     20  15  81 SE5       30.36F HAZE    WCI  13
$$

OHZ036-037-039>041-045>050-054>059-063>069-073>076-082>088-281700-
  CENTRAL AND SOUTHEAST OHIO

CITY           SKY/WX    TMP DP  RH WIND       PRES   REMARKS
COLUMBUS       SUNNY     19  12  74 CALM      30.38S
OSU AIRPORT    SUNNY     17  13  84 CALM      30.37F FOG
BOLTON FIELD   SUNNY     16  12  86 S3        30.38S FOG
RICKENBACK AFB SUNNY     15  11  86 CALM      30.39F
NEWARK         SUNNY     16  12  84 CALM      30.38R FOG
MARION         SUNNY     10   6  84 SE7       30.37S FOG     WCI  -1
LANCASTER      SUNNY     18  13  80 CALM      30.39S HAZE
ZANESVILLE     SUNNY     16  11  80 CALM      30.38S HAZE
NEW PHILLY     SUNNY     16  11  80 CALM      30.38S
$$


USA.gov is the U.S. government's official web portal to all federal, state and local government web resources and services.